This is the latest recevied weather packets stored in our database for station/object N6GPM. If no packets are shown the sender has not sent any weather packets the latest 10 day(s).
| Time | Temp. | Humidity | Pressure | Rain* | Wind** | Luminosity | Snow |
|---|---|---|---|---|---|---|---|
| 1787585432 | 30.56° C | 34% | 1020 hPa | 0 mm | - | 372 W/m² | - |
| 1787585126 | 30° C | 37% | 1019.9 hPa | 0 mm | - | 352 W/m² | - |
| 1787584822 | 29.44° C | 38% | 1020 hPa | 0 mm | - | 327 W/m² | - |
| 1787584520 | 28.33° C | 39% | 1019.9 hPa | 0 mm | - | 310 W/m² | - |
| 1787584214 | 28.33° C | 38% | 1020.1 hPa | 0 mm | - | 292 W/m² | - |
| 1787583908 | 27.22° C | 42% | 1020.1 hPa | 0 mm | - | 270 W/m² | - |
| 1787583604 | 27.22° C | 43% | 1020.1 hPa | 0 mm | - | 229 W/m² | - |
| 1787583302 | 26.67° C | 44% | 1020.1 hPa | 0 mm | - | 224 W/m² | - |
| 1787582991 | 26.67° C | 45% | 1020.1 hPa | 0 mm | - | 207 W/m² | - |
| 1787582686 | 26.11° C | 46% | 1020.1 hPa | 0 mm | - | 188 W/m² | - |
| 1787582383 | 25.56° C | 47% | 1020 hPa | 0 mm | - | 170 W/m² | - |
| 1787582082 | 25.56° C | 48% | 1019.9 hPa | 0 mm | - | 155 W/m² | - |
| 1787581776 | 25° C | 49% | 1020 hPa | 0 mm | - | 133 W/m² | - |
| 1787581472 | 24.44° C | 49% | 1019.9 hPa | 0 mm | - | 116 W/m² | - |
| 1787581166 | 24.44° C | 49% | 1019.7 hPa | 0 mm | - | 105 W/m² | - |
| 1787580861 | 24.44° C | 49% | 1019.9 hPa | 0 mm | - | 91 W/m² | - |
| 1787580558 | 24.44° C | 49% | 1019.8 hPa | 0 mm | - | 78 W/m² | - |
| 1787580257 | 24.44° C | 50% | 1019.7 hPa | 0 mm | - | 64 W/m² | - |
| 1787579952 | 24.44° C | 50% | 1019.6 hPa | 0 mm | - | 56 W/m² | - |
| 1787579648 | 24.44° C | 49% | 1019.7 hPa | 0 mm | - | 47 W/m² | - |
| 1787579343 | 24.44° C | 48% | 1019.2 hPa | 0 mm | - | 38 W/m² | - |
| 1787579038 | 24.44° C | 49% | 1019.4 hPa | 0 mm | - | 30 W/m² | - |
| 1787578733 | 23.89° C | 49% | 1019.3 hPa | 0 mm | - | 25 W/m² | - |
| 1787578428 | 23.33° C | 50% | 1019.2 hPa | 0 mm | - | 19 W/m² | - |
| 1787578128 | 22.78° C | 50% | 1019 hPa | 0 mm | - | 13 W/m² | - |
* Rain latest hour (hover to see other rain measurements)
** Current wind speed in m/s (hover to see current wind gust speed)